Date,TemperatureHighF,TemperatureAvgF,TemperatureLowF,DewpointHighF,DewpointAvgF,DewpointLowF,HumidityHigh,HumidityAvg,HumidityLow,PressureMaxIn,PressureMinIn,WindSpeedMaxMPH,WindSpeedAvgMPH,GustSpeedMaxMPH,PrecipitationSumIn
2013-1-1,32.4,24.7,14.2,30.4,17.8,8.4,93,75,62,30.09,29.95,14,5,14,0.00
2013-1-2,24.3,18.0,10.2,16.9,12.8,7.2,88,80,68,30.18,30.05,11,5,11,0.00
2013-1-3,28.6,22.3,13.5,24.8,15.8,6.5,86,76,62,30.17,30.07,20,8,20,0.00
2013-1-4,28.6,25.7,20.5,23.5,18.7,15.4,82,75,62,30.19,30.08,26,12,26,0.00
2013-1-5,34.5,28.8,21.0,29.8,22.8,17.8,87,78,67,30.29,30.04,16,8,16,0.00
2013-1-6,36.9,34.1,30.2,32.1,29.4,26.4,90,83,79,30.23,29.92,17,8,17,0.00
2013-1-7,37.9,31.7,25.5,29.6,25.8,23.3,92,79,64,30.40,30.15,19,8,19,0.00
2013-1-8,41.2,33.1,26.8,28.9,25.9,22.3,84,75,58,30.24,30.15,15,6,15,0.00
2013-1-9,47.7,39.4,30.4,35.9,32.1,26.4,87,75,61,30.44,30.06,20,8,20,0.00
2013-1-10,42.4,34.8,25.2,34.8,29.1,23.3,93,80,66,30.54,30.11,13,4,13,0.00
2013-1-11,61.3,49.6,37.9,53.7,45.0,30.8,99,85,69,30.11,29.75,22,8,22,0.35
2013-1-12,61.2,53.2,46.9,54.6,49.6,44.3,97,88,78,29.94,29.75,18,7,18,0.30
2013-1-13,62.1,44.4,35.8,60.5,43.4,34.5,99,96,85,30.00,29.59,26,6,26,0.64
2013-1-14,35.8,28.3,26.1,34.5,22.3,18.8,95,78,72,30.42,30.00,17,1,17,0.00
2013-1-15,34.3,28.7,23.7,22.5,19.1,16.7,76,67,52,30.40,30.09,13,3,13,0.01
2013-1-16,38.5,33.1,28.9,29.4,24.0,22.0,85,69,55,30.10,29.83,21,7,21,0.00
2013-1-17,39.4,33.0,23.2,32.0,24.8,8.6,87,72,53,30.30,29.96,24,8,24,0.00
2013-1-18,36.3,29.1,20.3,23.6,17.3,7.8,78,61,51,30.44,30.03,40,12,40,0.00
2013-1-19,51.3,44.2,36.3,34.0,27.6,23.1,63,52,42,30.03,29.63,30,14,30,0.00
2013-1-20,45.9,28.0,19.8,34.7,13.7,6.4,69,55,41,30.15,29.62,30,12,30,0.00
2013-1-21,23.0,17.6,10.2,13.8,6.8,0.4,81,62,48,30.12,29.94,22,9,22,0.00
2013-1-22,14.9,8.0,2.7,5.4,-0.8,-5.1,84,67,47,30.29,30.08,16,7,16,0.00
2013-1-23,19.8,12.7,4.5,11.7,3.5,-4.0,82,66,46,30.27,30.05,14,5,14,0.00
2013-1-24,21.6,16.7,12.7,13.2,9.2,4.7,87,72,56,30.54,30.06,20,6,20,0.00
2013-1-25,21.7,18.8,16.3,18.1,11.9,5.8,89,74,62,30.48,29.99,11,4,11,0.00
2013-1-26,27.0,22.5,12.7,20.9,17.0,7.7,90,79,65,30.40,30.03,13,4,13,0.00
2013-1-27,33.3,27.2,12.0,26.4,19.1,8.7,87,72,59,30.46,30.14,14,5,14,0.00
2013-1-28,49.5,43.1,32.4,48.7,41.7,25.9,99,95,75,30.14,29.85,22,9,22,0.13
2013-1-29,60.4,50.4,36.9,56.1,48.8,36.6,99,94,80,29.99,29.47,27,8,27,0.01
2013-1-30,63.0,53.7,35.8,56.8,49.4,30.6,99,86,76,29.48,29.10,40,14,40,0.28
2013-1-31,35.8,25.2,17.2,30.8,16.4,5.7,84,69,56,29.88,29.25,30,13,30,0.02
2013-2-1,22.1,16.3,11.8,10.0,7.0,4.1,78,67,54,30.27,29.87,24,11,24,0.00
2013-2-2,25.3,19.8,14.0,20.9,15.1,5.1,90,82,67,30.25,29.92,21,8,21,0.00
2013-2-3,30.7,19.5,15.1,25.0,14.0,10.8,88,79,64,30.00,29.85,17,7,17,0.00
2013-2-4,27.3,22.2,17.6,22.6,17.7,12.2,91,83,72,30.02,29.83,11,5,11,0.00
2013-2-5,36.1,25.0,17.8,25.8,21.0,15.9,93,85,68,29.92,29.79,14,4,14,0.01
2013-2-6,35.2,27.5,19.4,26.6,18.2,11.8,90,69,45,30.28,29.91,15,4,15,0.01
2013-2-7,44.6,31.1,23.7,29.4,23.9,18.2,85,75,53,30.25,29.74,19,5,19,0.01
2013-2-8,34.7,30.2,25.9,33.2,26.4,19.1,98,86,75,30.29,29.69,16,1,16,0.18
2013-2-9,34.0,26.0,17.4,23.9,19.8,14.3,90,77,62,30.41,30.26,11,2,11,0.00
2013-2-10,49.1,37.4,22.8,41.0,26.3,18.7,85,65,45,30.26,29.69,24,6,24,0.02
2013-2-11,47.1,40.2,33.3,43.8,32.3,23.1,94,74,60,29.88,29.59,34,16,34,0.08
2013-2-12,37.9,32.7,25.5,26.4,24.1,20.9,87,71,59,30.05,29.88,16,6,16,0.05
2013-2-13,35.6,29.8,24.3,26.3,24.1,21.2,90,79,67,29.90,29.73,11,4,11,0.00
2013-2-14,41.2,35.7,28.2,35.9,30.8,25.4,90,82,68,29.85,29.72,23,10,23,0.00
2013-2-15,35.4,30.9,27.0,26.6,21.4,14.2,81,68,56,30.08,29.84,14,6,14,0.00
2013-2-16,34.9,24.0,18.1,22.5,15.9,11.0,84,71,50,30.07,29.94,17,5,17,0.00
2013-2-17,24.1,20.4,15.8,15.9,10.0,-12.4,88,65,19,30.20,30.00,48,7,48,0.00
2013-2-18,48.0,32.3,15.6,33.3,20.7,7.8,77,63,49,30.21,29.63,71,8,71,0.00
2013-2-19,47.7,29.9,17.6,39.9,23.0,9.1,93,75,55,29.96,29.48,36,16,36,0.08
2013-2-20,26.6,21.3,13.5,15.0,11.8,-0.4,88,67,46,30.21,29.95,24,10,24,0.00
2013-2-21,28.2,23.3,21.2,19.4,15.6,12.5,81,72,61,30.35,30.19,16,8,16,0.00
2013-2-22,37.2,30.0,22.5,36.3,27.0,16.0,97,89,75,30.23,29.85,21,6,21,0.04
2013-2-23,34.7,32.5,29.3,32.1,25.5,21.4,91,76,64,29.94,29.85,15,6,15,0.00
2013-2-24,39.6,32.0,24.3,26.0,22.7,18.7,81,69,54,30.08,29.85,14,5,14,0.00
2013-2-25,44.8,31.8,21.7,34.1,24.9,19.6,93,76,53,30.14,29.99,16,4,16,0.00
2013-2-26,36.3,33.1,29.7,35.8,29.9,24.0,98,88,74,30.01,29.38,28,11,28,0.90
2013-2-27,43.3,36.8,32.9,41.7,35.6,31.7,99,96,89,29.55,29.37,18,7,18,0.18
2013-2-28,39.7,34.3,32.2,37.0,31.8,26.7,97,91,80,29.85,29.50,15,7,15,0.04
2013-3-1,32.0,29.5,27.1,27.0,23.6,20.7,86,78,65,30.00,29.85,19,10,19,0.00
2013-3-2,31.5,27.8,24.8,25.8,23.0,19.6,88,82,75,29.98,29.93,17,9,17,0.00
2013-3-3,29.8,25.6,19.6,21.3,18.3,15.3,87,74,60,29.99,29.92,16,6,16,0.00
2013-3-4,33.4,26.5,18.3,23.3,19.8,14.9,88,76,59,30.06,29.98,9,3,9,0.00
2013-3-5,37.2,29.6,24.3,27.6,24.4,21.5,91,81,61,30.04,29.65,29,11,29,0.09
2013-3-6,43.3,34.5,31.3,32.4,29.5,27.4,88,82,63,30.13,29.65,24,9,24,0.04
2013-3-7,41.7,35.0,31.8,32.8,30.4,26.2,92,83,68,30.31,30.11,12,4,12,0.00
2013-3-8,39.9,32.1,24.1,30.6,24.7,22.0,94,75,52,30.41,30.30,8,3,8,0.00
2013-3-9,50.7,36.8,25.9,36.3,29.5,24.2,94,76,48,30.35,29.98,13,4,13,0.01
2013-3-10,67.8,55.6,42.1,42.1,36.5,32.8,77,50,33,29.98,29.75,27,7,27,0.00
2013-3-11,58.5,50.6,39.0,50.2,43.3,32.8,91,77,44,29.76,29.44,27,11,27,0.51
2013-3-12,38.8,35.5,31.8,33.7,29.4,25.1,86,78,70,29.89,29.69,22,9,22,0.00
2013-3-13,36.3,31.6,27.3,27.7,21.9,14.7,88,68,44,30.12,29.82,22,10,22,0.00
2013-3-14,40.1,33.7,23.0,23.6,20.7,15.8,78,59,47,30.19,30.03,14,5,14,0.00
2013-3-15,46.2,37.0,31.5,35.0,30.3,22.7,93,77,62,30.04,29.77,15,6,15,0.09
2013-3-16,35.6,32.7,30.7,34.3,31.3,28.6,97,94,89,29.97,29.62,19,3,19,0.08
2013-3-17,34.3,30.6,28.0,30.0,23.0,19.2,93,74,60,30.17,29.97,19,4,19,0.00
2013-3-18,41.7,34.6,28.2,41.2,31.0,21.3,98,87,72,30.08,29.46,20,8,20,0.06
2013-3-19,36.3,30.8,24.8,33.7,20.2,15.4,90,65,49,29.89,29.60,27,12,27,0.01
2013-3-20,34.9,27.9,20.5,20.6,15.3,9.7,75,59,41,29.89,29.81,17,7,17,0.00
2013-3-21,34.2,25.7,16.3,24.9,17.2,10.3,82,70,57,29.87,29.79,17,8,17,0.00
2013-3-22,40.3,32.6,27.0,23.3,20.2,17.8,76,60,45,29.94,29.86,19,6,19,0.00
2013-3-23,40.5,33.0,23.9,29.2,24.3,20.3,89,71,50,30.02,29.93,11,4,11,0.00
2013-3-24,36.7,32.2,28.8,27.7,25.0,21.6,84,75,60,29.95,29.47,31,13,31,0.09
2013-3-25,34.9,32.7,30.9,33.4,31.7,26.2,99,96,74,29.80,29.39,30,13,30,0.09
2013-3-26,45.3,37.6,33.8,34.2,31.3,29.3,91,79,57,30.04,29.80,14,6,14,0.00
2013-3-27,46.8,39.8,32.2,31.2,27.9,23.8,88,64,43,30.13,30.03,17,7,17,0.00
2013-3-28,48.9,40.3,30.9,33.1,27.3,22.8,73,60,43,30.21,30.12,15,6,17,0.00
2013-3-29,51.1,41.7,30.9,32.0,24.9,-16.0,76,54,10,30.23,30.14,11,5,11,0.04
2013-3-30,58.6,44.0,28.8,33.1,26.2,14.7,85,55,19,30.15,29.87,14,4,16,0.00
2013-3-31,60.4,49.7,42.6,45.7,35.9,29.6,77,60,38,29.88,29.58,17,7,17,0.00
2013-4-1,48.4,38.6,30.7,39.8,18.5,6.0,81,46,20,30.03,29.61,23,11,23,0.00
2013-4-2,45.3,34.6,23.0,19.8,13.1,6.9,70,43,22,30.17,30.03,22,8,22,0.00
2013-4-3,41.9,34.5,24.4,21.7,14.7,5.7,63,45,23,30.34,30.16,20,7,20,0.00
2013-4-4,58.5,39.9,27.7,29.1,17.1,-3.7,76,44,10,30.30,29.88,12,5,12,0.00
2013-4-5,48.9,42.0,34.5,34.4,25.8,19.0,80,54,33,30.14,29.85,16,6,16,0.00
2013-4-6,56.8,45.4,33.1,23.6,16.4,9.1,64,34,17,30.19,29.77,18,8,18,0.00
2013-4-7,68.4,58.0,43.7,45.9,37.0,19.0,71,47,25,29.96,29.63,31,11,31,0.01
2013-4-8,72.0,56.8,41.4,54.6,44.2,33.7,80,64,44,29.99,29.69,34,10,34,0.00
2013-4-9,63.0,52.0,43.5,47.5,43.4,39.8,88,73,54,30.03,29.79,14,6,14,0.00
2013-4-10,49.5,44.9,41.0,46.6,43.4,39.9,99,95,84,29.96,29.75,24,8,24,0.44
2013-4-11,41.0,39.1,37.8,40.5,38.3,36.0,99,97,91,29.89,29.51,31,15,31,0.98
2013-4-12,45.5,41.2,38.3,43.0,37.4,32.6,99,87,68,29.76,29.40,23,9,23,0.14
2013-4-13,46.0,41.1,39.2,37.4,34.3,30.0,86,77,65,29.94,29.75,21,9,21,0.01
2013-4-14,53.2,43.2,34.7,39.9,35.2,30.4,86,74,55,30.04,29.86,17,5,17,0.00
2013-4-15,72.5,59.0,43.3,52.4,46.4,37.8,82,65,44,29.92,29.82,22,7,22,0.00
2013-4-16,60.6,55.1,49.5,54.2,50.7,47.7,96,85,75,30.13,29.84,15,4,15,0.07
2013-4-17,54.5,48.7,44.8,48.3,37.5,31.7,95,67,45,30.24,29.95,27,12,27,0.01
2013-4-18,82.4,64.6,44.4,62.8,54.6,38.2,94,72,44,29.99,29.57,40,13,40,0.05
2013-4-19,69.6,49.0,36.3,59.2,41.5,30.0,91,76,59,29.77,29.33,34,14,34,0.17
2013-4-20,46.6,39.7,32.5,32.1,25.5,19.0,88,59,36,30.36,29.76,21,9,21,0.00
2013-4-21,50.4,40.5,32.0,30.6,25.5,19.2,73,56,35,30.53,30.36,20,7,20,0.00
2013-4-22,60.8,47.5,32.9,41.2,33.9,28.8,86,61,37,30.40,30.11,18,5,18,0.00
2013-4-23,74.5,60.2,46.2,54.5,39.5,30.6,90,50,25,30.12,29.78,21,8,21,0.02
2013-4-24,59.4,46.1,36.5,54.9,43.0,31.2,96,89,80,30.10,29.67,24,9,24,0.52
2013-4-25,55.4,44.8,34.9,42.0,33.3,28.5,84,65,41,30.29,30.08,27,8,27,0.02
2013-4-26,60.4,47.4,31.6,38.9,32.1,27.3,89,59,31,30.40,30.28,11,4,11,0.00
2013-4-27,71.1,54.3,39.9,44.9,36.8,27.7,90,56,22,30.31,30.01,17,5,17,0.00
2013-4-28,61.2,54.8,46.0,57.7,50.5,36.7,96,86,65,30.02,29.77,11,4,11,0.30
2013-4-29,70.7,61.7,55.2,58.4,55.5,52.8,99,82,55,29.91,29.77,9,4,9,0.00
2013-4-30,76.5,65.1,52.9,57.9,54.6,51.8,97,71,47,30.04,29.91,17,5,17,0.00
2013-5-1,85.1,68.2,58.6,58.9,54.3,50.0,82,64,35,30.18,30.02,15,5,15,0.00
2013-5-2,82.0,66.8,56.8,53.7,48.4,42.4,84,54,31,30.20,30.08,17,6,17,0.00
2013-5-3,80.6,69.6,59.2,53.5,43.7,20.3,78,43,11,30.08,30.00,16,5,16,0.00
2013-5-4,74.1,63.5,56.3,46.5,41.3,29.6,63,46,23,30.06,29.98,23,7,23,0.02
2013-5-5,73.6,62.1,55.2,47.2,43.4,35.0,68,52,25,30.03,29.93,23,7,23,0.00
2013-5-6,70.9,61.2,53.1,48.3,42.5,34.9,67,51,37,29.99,29.92,17,5,17,0.00
2013-5-7,72.3,63.2,53.4,56.8,51.5,45.6,89,67,52,29.99,29.92,20,5,20,0.00
2013-5-8,72.7,63.1,57.9,58.2,53.9,51.0,84,73,52,29.95,29.88,9,4,10,0.00
2013-5-9,81.7,67.8,52.9,59.9,50.8,41.9,96,59,29,29.94,29.87,10,3,10,0.00
2013-5-10,76.1,66.1,52.7,63.7,58.5,47.8,94,78,50,29.89,29.69,18,8,18,0.43
2013-5-11,60.4,51.6,45.7,49.2,44.9,33.1,89,78,61,29.87,29.73,29,7,29,0.02
2013-5-12,53.4,45.5,37.2,35.8,29.7,23.8,85,56,32,30.03,29.85,24,8,24,0.00
2013-5-13,56.8,45.7,34.2,32.9,25.4,15.9,78,48,21,30.12,30.01,14,5,14,0.00
2013-5-14,76.8,60.4,44.6,55.2,40.3,26.8,66,49,31,30.06,29.67,24,8,24,0.00
2013-5-15,89.1,76.1,66.0,60.1,51.9,24.9,74,48,10,29.75,29.59,22,7,22,0.00
2013-5-16,84.9,75.1,57.2,50.2,41.8,26.4,65,34,12,29.93,29.72,10,3,10,0.00
2013-5-17,70.0,61.7,56.1,49.7,45.2,40.3,69,55,45,30.08,29.93,22,9,22,0.00
2013-5-18,73.8,64.9,52.7,53.9,48.1,43.3,84,55,44,30.06,29.86,18,6,18,0.00
2013-5-19,86.2,71.5,55.8,66.0,59.5,47.9,91,67,48,29.87,29.75,14,4,14,0.00
2013-5-20,90.7,79.1,66.0,71.8,65.6,61.8,93,66,39,29.80,29.65,21,6,21,0.00
2013-5-21,89.1,80.7,72.5,68.0,61.6,52.6,84,56,31,30.42,29.58,21,8,21,0.00
2013-5-22,84.4,76.0,68.0,66.1,61.2,55.9,78,61,39,29.64,29.50,25,8,25,0.01
2013-5-23,76.8,61.0,46.4,60.5,53.7,39.4,93,78,51,29.97,29.57,27,8,27,0.17
2013-5-24,57.4,49.4,41.9,40.1,36.6,33.7,81,62,45,30.20,29.97,21,9,22,0.01
2013-5-25,64.8,53.8,39.7,43.8,36.4,31.3,92,56,31,30.25,30.12,11,3,11,0.00
2013-5-26,69.1,59.5,44.8,40.7,33.5,19.9,71,41,17,30.20,30.08,9,3,9,0.00
2013-5-27,59.0,55.6,51.4,53.7,44.9,34.0,93,69,42,30.11,29.84,14,4,14,0.33
2013-5-28,84.6,70.6,56.1,70.3,63.2,53.5,98,79,56,29.84,29.70,23,7,23,0.27
2013-5-29,89.8,80.4,71.8,65.7,62.3,59.1,71,55,37,29.86,29.71,44,8,44,0.00
2013-5-30,91.4,81.1,70.2,67.9,63.3,59.2,80,56,35,29.94,29.81,21,7,21,0.00
2013-5-31,87.8,76.8,70.0,72.2,66.0,62.0,92,71,49,29.86,29.74,27,9,27,0.24
2013-6-1,83.5,73.5,64.9,71.1,65.9,61.6,96,79,51,29.78,29.56,22,8,22,0.17
2013-6-2,77.5,70.8,61.3,69.4,60.5,52.0,95,71,51,29.79,29.55,20,8,20,0.00
2013-6-3,68.2,61.0,55.4,52.8,45.3,7.7,74,58,28,29.94,29.79,13,5,13,0.00
2013-6-4,70.5,62.1,50.4,53.7,44.9,39.7,73,55,35,30.05,29.93,13,4,13,0.00
2013-6-5,74.5,64.7,55.4,53.3,48.2,-28.1,74,56,34,30.00,29.81,21,7,21,0.00
2013-6-6,65.5,60.5,57.9,57.6,53.3,47.6,91,78,62,29.82,29.69,21,8,21,0.02
2013-6-7,61.5,59.6,4.8,57.8,54.9,1.6,94,84,79,29.75,29.69,103,6,103,0.00
2013-6-8,73.2,64.8,58.3,57.2,54.7,50.2,89,71,48,29.92,29.74,11,3,72,0.00
2013-6-9,83.5,70.6,61.5,64.4,58.7,52.8,85,67,46,29.95,29.77,16,5,16,0.00
2013-6-10,73.2,68.8,66.6,70.3,66.2,64.0,97,91,82,29.77,29.58,9,2,9,0.52
2013-6-11,82.8,73.7,66.0,67.9,65.5,62.6,98,77,53,29.75,29.61,14,4,14,0.00
2013-6-12,84.2,74.8,67.6,69.6,66.2,61.6,90,75,59,29.75,29.47,16,4,16,0.00
2013-6-13,79.0,70.6,64.4,67.4,62.1,57.3,99,76,52,29.74,29.34,22,6,22,0.47
2013-6-14,76.8,69.5,61.9,58.4,56.5,51.8,80,64,43,29.92,29.73,18,6,18,0.00
2013-6-15,83.1,70.8,58.6,62.4,58.3,54.3,89,67,39,29.96,29.79,14,4,14,0.00
2013-6-16,86.9,75.9,66.2,68.5,65.4,61.5,97,72,48,29.79,29.67,14,5,14,0.32
2013-6-17,85.1,75.0,65.8,72.5,66.7,61.1,97,77,50,29.77,29.69,15,3,15,0.70
2013-6-18,75.2,69.6,63.0,65.4,60.6,-41.6,91,74,59,29.90,29.69,15,6,15,0.00
2013-6-19,76.6,67.9,58.3,57.9,51.5,44.3,82,58,37,30.02,29.88,14,5,14,0.00
2013-6-20,84.2,70.7,55.4,58.4,52.6,47.3,88,56,28,30.07,29.99,15,4,15,0.00
2013-6-21,89.4,78.2,66.9,63.2,58.9,53.9,75,53,33,30.06,29.92,12,4,12,0.00
2013-6-22,93.9,80.2,71.4,75.6,66.8,61.6,87,65,42,29.97,29.83,18,6,18,0.28
2013-6-23,93.9,81.1,69.3,70.6,66.8,60.8,91,65,35,29.95,29.83,17,4,17,0.00
2013-6-24,90.9,80.9,69.6,71.1,66.8,63.4,89,64,44,29.94,29.78,17,5,17,0.00
2013-6-25,92.1,80.6,69.6,75.7,69.0,63.4,95,69,50,29.84,29.65,22,5,22,0.69
2013-6-26,85.6,76.0,68.4,72.2,69.0,65.8,96,80,60,29.75,29.60,17,4,17,0.07
2013-6-27,84.4,74.8,68.5,74.3,70.2,67.4,99,87,61,29.62,29.48,14,3,14,0.77
2013-6-28,82.8,70.9,63.9,72.0,66.7,61.1,99,87,59,29.48,29.36,25,3,25,0.97
2013-6-29,79.5,70.8,62.2,71.0,64.2,61.8,99,81,60,29.55,29.38,14,4,14,0.00
2013-6-30,77.0,71.9,68.2,64.0,62.2,57.4,84,72,59,29.75,29.54,16,7,16,0.00
2013-7-1,70.0,68.2,65.1,65.3,63.2,56.8,96,84,64,29.86,29.72,21,10,21,0.43
2013-7-2,74.8,69.1,67.3,68.0,65.3,62.2,94,88,77,29.92,29.81,19,7,19,0.00
2013-7-3,87.6,75.7,65.3,73.3,68.1,64.9,99,79,50,29.95,29.86,11,3,11,0.00
2013-7-4,84.6,74.4,69.8,72.5,70.1,68.6,98,87,63,29.99,29.93,17,4,17,0.24
2013-7-5,82.2,74.9,69.3,74.0,70.6,68.8,99,87,68,29.97,29.90,7,2,9,0.30
2013-7-6,87.4,75.8,71.1,74.8,71.4,68.9,99,87,60,29.98,29.83,11,4,11,0.19
2013-7-7,82.0,74.4,69.3,72.2,68.6,63.5,99,83,62,29.91,29.82,13,4,13,0.02
2013-7-8,85.5,74.6,68.0,74.7,70.0,64.7,99,86,67,29.91,29.84,26,5,26,0.76
2013-7-9,87.1,76.8,70.7,77.6,73.6,70.4,99,90,73,29.86,29.76,17,4,17,0.67
2013-7-10,91.9,79.2,70.9,79.0,71.9,63.7,97,79,63,29.77,29.60,21,6,21,0.32
2013-7-11,80.1,74.7,70.0,65.3,58.9,54.3,77,59,43,29.90,29.76,17,4,17,0.00
2013-7-12,81.0,73.3,65.5,66.9,61.8,57.4,85,68,51,29.97,29.89,15,5,15,0.00
2013-7-13,85.5,76.3,66.4,68.7,66.3,62.8,90,72,52,30.04,29.94,17,5,17,0.00
2013-7-14,91.0,80.7,70.2,74.3,71.0,67.4,94,74,53,30.09,30.03,13,3,13,0.00
2013-7-15,94.5,84.4,75.2,76.3,74.2,71.8,93,73,50,30.14,30.06,9,3,9,0.00
2013-7-16,92.3,84.9,77.4,78.4,76.2,73.2,92,76,56,30.15,30.08,11,2,11,0.00
2013-7-17,93.7,84.1,77.9,80.6,75.3,72.1,92,76,54,30.14,29.99,15,2,15,0.08
2013-7-18,95.4,86.4,75.9,78.6,75.5,72.4,96,72,49,30.02,29.83,11,3,11,0.00
2013-7-19,94.5,86.4,75.7,76.5,74.1,69.2,88,68,49,29.83,29.61,18,6,18,0.14
2013-7-20,83.8,76.0,69.3,75.9,72.6,68.6,99,89,70,29.75,29.60,32,5,32,3.90
2013-7-21,85.8,77.5,71.8,72.1,68.2,64.3,98,74,56,29.83,29.74,13,4,13,0.00
2013-7-22,78.3,73.3,66.6,72.9,67.3,62.2,96,82,71,29.81,29.61,9,1,9,0.04
2013-7-23,88.9,76.0,66.0,74.7,67.6,60.1,99,78,43,29.67,29.51,24,6,24,0.02
2013-7-24,73.9,68.4,64.0,60.7,54.3,51.1,76,61,48,29.87,29.67,20,8,22,0.00
2013-7-25,79.3,68.7,55.8,60.9,54.1,46.3,95,63,33,29.96,29.87,11,3,11,0.00
2013-7-26,81.5,70.9,56.8,63.0,57.9,52.5,98,67,38,29.95,29.76,11,2,11,0.00
2013-7-27,74.3,67.6,62.1,67.6,63.0,56.2,99,86,69,29.77,29.59,24,8,24,0.57
2013-7-28,71.6,62.4,54.1,59.1,53.9,49.4,94,76,48,29.87,29.71,22,4,22,0.12
2013-7-29,75.6,66.0,55.2,60.3,55.9,50.8,89,71,54,30.02,29.86,12,4,12,0.00
2013-7-30,79.5,69.6,57.9,63.0,59.4,54.9,95,72,50,30.08,29.97,11,2,11,0.00
2013-7-31,82.8,72.6,66.7,67.9,64.4,61.1,96,76,55,29.98,29.74,13,4,13,0.02
2013-8-1,81.7,71.2,63.7,68.3,65.6,61.4,99,84,55,29.77,29.70,17,4,17,0.98
2013-8-2,77.7,67.0,57.7,68.4,61.6,54.8,97,84,56,29.82,29.69,19,4,19,0.48
2013-8-3,80.4,73.3,65.5,72.5,61.7,50.9,99,70,38,29.84,29.75,9,3,9,0.00
2013-8-4,74.7,69.8,64.4,63.0,56.5,51.9,82,63,48,30.00,29.84,16,5,16,0.00
2013-8-5,78.1,68.5,59.4,61.4,56.7,50.9,82,67,48,29.98,29.81,11,2,11,0.00
2013-8-6,82.6,73.0,65.8,65.5,62.4,59.8,83,70,53,29.83,29.74,13,4,13,0.00
2013-8-7,83.3,74.5,69.1,73.7,69.5,63.5,98,84,70,29.79,29.69,14,4,14,1.28
2013-8-8,79.3,73.3,70.3,73.0,69.4,64.2,99,88,71,29.83,29.74,14,4,14,0.00
2013-8-9,80.4,72.7,65.8,65.0,60.4,52.8,80,66,42,29.86,29.77,11,4,11,0.01
2013-8-10,79.3,71.5,66.6,66.9,62.8,58.9,89,74,57,29.95,29.85,14,3,14,0.00
2013-8-11,84.9,72.3,60.4,65.2,61.1,53.2,96,71,38,29.96,29.85,11,2,11,0.00
2013-8-12,82.8,73.0,66.9,69.2,65.3,62.8,95,78,59,29.90,29.66,14,3,14,0.01
2013-8-13,72.7,68.5,64.6,68.9,58.3,46.0,98,72,47,29.87,29.64,20,8,20,0.00
2013-8-14,72.0,65.5,57.4,55.3,50.4,46.4,82,59,43,30.01,29.87,17,6,17,0.00
2013-8-15,76.1,65.1,52.9,56.2,51.8,47.6,88,65,38,30.04,29.95,11,3,11,0.00
2013-8-16,81.1,67.9,56.3,59.5,54.1,48.4,94,65,34,30.03,29.97,9,3,9,0.00
2013-8-17,80.2,69.1,57.4,68.3,60.9,54.7,98,77,56,30.09,30.00,15,3,15,0.00
2013-8-18,84.9,71.2,59.0,66.8,61.1,54.4,97,73,40,30.06,29.95,11,2,11,0.00
2013-8-19,83.1,71.3,60.1,67.4,63.0,59.6,99,78,47,29.98,29.88,9,2,9,0.00
2013-8-20,86.9,75.0,62.8,70.3,64.8,59.9,94,73,46,30.01,29.91,10,4,10,0.00
2013-8-21,87.8,76.6,68.0,70.0,66.5,63.5,87,72,48,30.00,29.85,13,5,13,0.00
2013-8-22,84.7,75.7,68.5,72.3,68.8,64.6,91,80,63,29.92,29.82,12,5,12,0.00
2013-8-23,81.1,73.3,64.4,72.3,63.7,55.0,99,74,45,30.03,29.86,12,4,12,0.00
2013-8-24,81.1,70.9,33.8,65.9,60.3,16.2,97,72,43,30.16,30.02,13,3,13,0.00
2013-8-25,86.0,73.6,61.2,67.2,62.3,57.8,91,69,45,30.16,30.01,14,4,14,0.00
2013-8-26,87.6,77.1,67.1,72.0,66.3,-57.7,86,70,54,30.04,29.83,14,5,14,0.00
2013-8-27,85.1,77.5,73.0,77.4,73.4,17.4,98,87,10,29.87,29.71,17,5,17,0.00
2013-8-28,83.5,77.0,-17.3,76.7,73.9,-21.4,98,90,79,29.83,29.66,13,3,13,0.11
2013-8-29,82.4,75.8,69.6,73.8,70.8,11.2,99,86,10,29.91,29.82,124,4,124,0.00
2013-8-30,87.8,77.4,68.2,75.6,70.5,67.9,99,81,54,29.85,29.62,14,4,14,0.00
2013-8-31,82.6,74.7,66.9,73.5,69.9,64.7,96,85,75,29.68,29.56,21,4,21,0.34
2013-9-1,82.2,76.2,72.1,75.3,72.2,70.2,98,88,72,29.68,29.57,10,3,10,0.02
2013-9-2,79.9,73.1,68.5,72.4,66.8,58.2,99,82,56,29.72,29.56,18,6,18,0.00
2013-9-3,73.4,65.4,61.2,58.9,55.7,51.6,88,71,55,29.87,29.72,16,5,16,0.00
2013-9-4,82.0,67.9,56.7,63.7,58.8,38.9,97,75,46,29.95,29.85,15,4,15,0.00
2013-9-5,71.8,67.7,61.3,65.4,55.8,42.8,88,67,39,30.09,29.90,14,5,14,0.00
2013-9-6,73.8,63.4,51.8,57.0,52.5,46.0,91,69,47,30.13,29.93,13,3,13,0.00
2013-9-7,84.4,69.6,59.4,70.0,60.8,51.2,92,74,56,29.93,29.74,11,4,13,0.02
2013-9-8,77.0,70.6,63.3,69.6,64.1,55.6,92,80,67,29.90,29.74,17,6,17,0.01
2013-9-9,80.1,68.7,56.8,72.0,63.6,52.4,92,84,74,29.91,29.75,9,2,9,0.04
2013-9-10,96.1,81.3,74.3,76.6,71.3,66.2,90,73,38,30.15,29.78,14,6,14,0.01
2013-9-11,93.2,81.2,73.9,75.5,70.5,66.3,87,72,43,30.17,30.02,15,5,15,0.00
2013-9-12,77.7,72.4,64.6,72.6,65.4,56.3,98,80,55,30.07,29.92,24,6,24,0.26
2013-9-13,65.1,60.1,54.9,56.3,48.4,39.5,77,65,55,30.19,30.01,21,11,21,0.01
2013-9-14,66.0,58.0,52.2,51.2,46.2,39.9,84,65,55,30.27,30.17,14,4,14,0.00
2013-9-15,72.0,61.4,53.2,57.0,52.0,47.9,88,73,45,30.22,30.10,17,5,17,0.04
2013-9-16,66.6,61.2,54.9,57.8,52.7,45.7,88,74,55,30.43,30.19,16,6,16,0.01
2013-9-17,67.5,60.0,53.2,54.1,49.2,43.8,88,69,47,30.46,30.29,13,5,13,0.00
2013-9-18,73.8,63.3,53.1,62.2,57.0,50.1,92,81,65,30.29,30.13,11,3,11,0.00
2013-9-19,80.6,69.8,62.4,71.1,66.1,60.3,99,89,68,30.15,30.03,13,6,13,0.00
2013-9-20,87.4,73.9,67.3,73.9,69.3,66.1,99,87,54,30.06,29.82,21,6,21,0.73
2013-9-21,70.2,65.8,61.0,68.1,59.6,49.6,99,82,56,29.93,29.76,17,6,17,0.50
2013-9-22,61.2,57.4,52.2,51.4,44.9,40.7,81,63,50,30.14,29.93,16,6,16,0.00
2013-9-23,61.3,56.6,48.0,47.6,45.6,43.4,89,67,52,30.25,30.13,14,5,14,0.00
2013-9-24,65.1,54.8,44.6,52.1,48.0,43.0,97,80,53,30.22,30.06,17,3,17,0.00
2013-9-25,70.7,59.4,49.6,62.4,54.5,49.0,99,85,60,30.07,30.00,16,3,16,0.00
2013-9-26,71.2,61.3,50.9,64.2,55.7,50.1,99,83,54,30.21,30.05,12,3,12,0.00
2013-9-27,72.0,61.9,53.1,64.0,56.3,52.1,99,83,56,30.30,30.21,15,4,15,0.00
2013-9-28,77.4,65.1,53.1,61.7,57.5,52.0,98,78,51,30.28,30.14,11,3,11,0.00
2013-9-29,69.3,64.5,61.0,63.2,59.8,55.7,99,85,73,30.14,30.04,12,5,12,0.02
2013-9-30,72.0,64.4,59.9,63.1,60.4,57.9,99,87,66,30.10,30.02,10,3,10,0.01
2013-10-1,78.4,67.2,59.0,67.9,60.8,58.7,99,82,54,30.12,30.05,14,4,14,0.01
2013-10-2,75.9,68.0,63.3,66.1,60.4,45.6,96,79,34,30.17,30.07,14,4,14,0.00
2013-10-3,81.0,71.1,64.0,71.3,66.5,58.8,98,86,67,30.86,30.04,12,4,12,0.00
2013-10-4,75.6,70.6,68.2,70.9,67.8,65.3,96,91,81,30.14,30.07,16,5,16,0.12
2013-10-5,73.9,69.7,66.9,73.2,68.9,65.8,99,97,92,30.13,29.98,11,2,11,0.91
2013-10-6,76.1,68.5,57.9,70.6,66.0,56.8,99,92,73,29.98,29.74,21,7,21,0.58
2013-10-7,61.7,54.2,46.8,57.1,47.6,43.1,99,79,57,30.20,29.80,17,5,17,0.05
2013-10-8,66.4,55.1,43.7,54.2,48.4,43.2,99,80,51,30.37,30.19,10,2,10,0.00
2013-10-9,68.2,56.9,46.2,53.0,49.1,44.2,99,77,44,30.39,30.28,12,2,12,0.00
2013-10-10,66.9,56.2,46.0,52.9,49.1,43.8,95,79,55,30.30,30.18,11,2,11,0.00
2013-10-11,51.4,50.2,48.9,49.5,49.0,48.1,97,96,93,30.19,30.16,2,0,2,0.00
2013-10-12,73.0,62.5,51.8,62.6,57.6,51.5,99,85,56,30.18,30.14,8,2,8,0.00
2013-10-13,66.6,62.6,53.1,62.2,53.9,47.1,98,74,51,30.39,30.18,9,4,9,0.00
2013-10-14,65.1,58.8,51.4,53.4,49.2,45.3,83,71,59,30.45,30.32,14,5,14,0.00
2013-10-15,64.8,56.7,46.0,62.9,53.7,42.9,99,90,82,30.33,29.96,11,4,11,0.13
2013-10-16,66.4,61.1,48.9,63.8,55.4,44.5,99,83,52,30.01,29.91,17,5,17,0.01
2013-10-17,55.6,49.5,44.6,50.8,46.8,43.2,96,90,81,30.00,29.86,13,4,13,0.09
2013-10-18,65.1,53.2,43.5,49.3,45.5,42.1,95,77,50,30.02,29.93,15,5,15,0.00
2013-10-19,50.4,45.8,43.7,44.7,42.5,39.4,94,88,77,30.00,29.84,13,4,13,0.21
2013-10-20,62.1,49.1,41.5,44.6,40.9,37.8,88,74,43,30.01,29.94,17,7,17,0.01
2013-10-21,63.7,54.1,45.1,49.8,45.4,38.4,91,73,55,30.00,29.89,16,8,17,0.04
2013-10-22,52.2,43.1,34.0,38.4,32.7,29.7,86,68,45,30.05,29.95,14,4,14,0.00
2013-10-23,48.0,41.9,35.8,38.8,34.4,30.2,91,75,53,30.02,29.87,17,5,17,0.00
2013-10-24,47.3,39.1,32.4,37.2,33.0,29.8,93,79,59,30.24,30.01,17,4,17,0.01
2013-10-25,48.4,39.4,30.7,38.7,32.3,28.4,96,77,54,30.40,30.24,12,4,12,0.00
2013-10-26,49.1,42.4,37.6,39.9,32.1,27.8,91,67,56,30.25,29.90,30,10,30,0.02
2013-10-27,54.1,42.7,33.3,40.6,35.1,30.6,93,76,47,30.15,30.07,11,3,11,0.01
2013-10-28,54.0,44.5,35.6,45.2,38.7,32.1,90,80,68,30.42,30.13,13,4,13,0.00
2013-10-29,55.0,46.7,36.3,44.4,40.5,34.5,96,80,60,30.48,30.28,10,3,10,0.00
2013-10-30,61.7,50.1,37.0,54.7,45.1,35.8,99,84,65,30.30,30.05,8,2,8,0.00
2013-10-31,63.1,61.0,58.8,61.2,59.3,54.7,99,94,85,30.05,29.27,30,13,30,0.63
2013-11-1,61.5,52.1,46.6,61.3,47.8,43.1,99,85,77,29.77,29.25,21,8,24,0.19
2013-11-2,51.4,47.1,43.5,47.0,43.4,38.1,96,87,75,30.14,29.73,19,7,19,0.07
2013-11-3,47.7,42.8,37.6,38.4,35.0,32.5,83,74,65,30.51,30.14,14,6,15,0.00
2013-11-4,53.2,41.6,33.4,36.0,30.4,27.2,82,66,39,30.53,30.39,13,5,13,0.00
2013-11-5,58.1,50.0,42.4,49.4,43.6,36.0,87,79,71,30.45,30.27,11,3,11,0.00
2013-11-6,60.4,54.9,46.4,56.9,48.0,40.6,97,78,60,30.27,29.94,23,10,23,0.07
2013-11-7,46.6,43.2,38.3,43.7,34.0,26.8,92,71,51,30.22,30.04,22,8,22,0.01
2013-11-8,46.4,38.7,34.3,34.4,30.3,26.5,87,73,48,30.36,30.19,12,4,12,0.00
2013-11-9,59.4,49.0,36.5,41.8,36.8,31.5,83,64,48,30.26,29.92,30,10,30,0.08
2013-11-10,50.5,44.4,35.1,40.0,31.3,26.7,80,61,45,30.35,30.00,21,7,21,0.00
2013-11-11,48.2,39.8,30.4,39.6,33.6,25.2,96,79,59,30.34,30.09,24,9,24,0.20
2013-11-12,36.0,31.9,28.2,26.3,21.9,18.7,77,66,53,30.60,30.33,25,10,25,0.00
2013-11-13,37.6,30.5,22.6,25.5,20.7,16.5,85,68,43,30.60,30.30,22,9,22,0.00
2013-11-14,50.4,41.3,30.4,26.3,24.2,21.3,75,51,34,30.30,30.11,26,12,26,0.00
2013-11-15,51.3,44.0,38.5,33.2,28.0,24.2,71,54,40,30.17,30.11,18,8,18,0.00
2013-11-16,59.5,49.2,37.0,52.9,44.2,32.9,92,83,71,30.18,29.92,19,7,19,0.00
2013-11-17,66.6,59.2,50.4,59.5,54.4,42.0,95,84,66,29.92,29.42,43,17,43,0.22
2013-11-18,50.7,43.0,36.7,42.0,33.7,25.3,85,70,57,30.20,29.64,30,12,30,0.00
2013-11-19,39.7,35.4,27.7,26.2,24.3,22.2,85,64,54,30.46,30.20,18,6,18,0.00
2013-11-20,47.5,35.3,0.0,28.8,26.2,24.3,83,67,47,30.48,30.32,17,3,17,0.00
2013-11-21,46.6,43.3,39.2,43.9,38.0,27.2,98,82,56,30.41,30.26,16,5,16,0.22
2013-11-22,48.2,43.6,33.6,47.9,41.2,27.4,99,91,73,30.43,30.21,27,7,27,0.05
2013-11-23,34.7,28.8,22.1,28.1,20.1,7.2,92,71,44,30.56,30.34,28,11,28,0.06
2013-11-24,28.0,22.1,18.1,15.5,10.4,6.9,80,61,42,30.67,30.53,24,5,24,0.00
2013-11-25,34.0,27.8,20.3,20.3,16.5,13.7,81,63,45,30.54,30.21,22,4,22,0.00
2013-11-26,35.6,32.9,31.3,30.0,25.7,20.3,84,75,59,30.24,29.97,17,2,17,0.00
2013-11-27,34.2,28.3,22.6,30.1,18.4,10.8,85,67,52,30.26,29.95,24,6,24,0.00
2013-11-28,32.4,26.2,19.6,23.5,16.7,11.4,79,67,56,30.50,30.26,16,2,16,0.00
2013-11-29,34.2,27.3,18.3,25.2,20.4,14.3,87,75,63,30.72,30.50,6,0,6,0.00
2013-11-30,46.6,34.2,27.7,29.1,25.5,20.9,82,71,50,30.64,30.20,13,0,13,0.00
2013-12-1,47.7,38.3,33.3,34.1,30.7,27.5,91,75,58,30.21,30.05,9,0,9,0.00
2013-12-2,38.3,35.3,32.2,34.5,31.9,29.0,96,88,78,30.05,29.96,7,0,7,0.00
2013-12-3,44.4,39.5,34.3,41.4,35.5,31.4,92,85,75,29.98,29.89,11,1,11,0.00
2013-12-4,58.8,49.9,39.9,53.8,46.5,37.2,97,88,77,29.99,29.75,20,3,20,0.05
2013-12-5,59.0,46.6,31.1,55.4,40.2,26.5,91,78,67,30.24,29.74,21,8,21,0.00
2013-12-6,32.9,30.5,26.6,29.0,23.0,17.8,90,73,68,30.44,30.20,12,3,12,0.00
2013-12-7,27.3,23.6,18.9,17.8,14.1,11.7,75,67,58,30.67,30.44,17,2,17,0.00
2013-12-8,29.7,26.4,18.1,27.0,19.2,11.9,93,74,60,30.66,30.06,20,3,20,0.00
2013-12-9,32.4,28.5,22.1,32.1,24.4,14.5,99,85,71,30.23,29.99,24,7,24,0.00
2013-12-10,27.1,21.4,15.8,14.5,10.0,3.4,73,62,41,30.32,30.07,28,3,28,0.01
2013-12-11,19.9,18.9,17.6,12.2,11.3,10.2,74,71,71,30.37,30.32,12,3,12,0.00
2013-12-12,18.3,15.3,7.0,7.7,4.9,0.3,84,63,51,30.56,30.30,24,1,24,0.00
2013-12-13,32.4,24.7,18.3,24.3,15.2,7.2,82,67,60,30.33,30.26,11,0,11,0.00
2013-12-14,32.9,29.5,24.4,32.3,28.3,24.0,99,96,80,30.30,29.81,16,6,16,0.00
2013-12-15,26.6,20.0,13.8,24.3,17.1,9.4,98,88,79,30.14,29.85,21,4,21,0.00
2013-12-16,22.8,15.2,5.9,18.1,10.4,2.5,90,81,68,30.26,30.06,4,0,4,0.00
2013-12-17,27.0,23.1,17.6,23.3,20.8,16.0,94,91,84,30.12,29.98,17,2,17,0.00
2013-12-18,30.9,23.8,18.9,21.3,18.8,15.0,94,81,67,30.24,30.00,16,0,16,0.00
2013-12-19,43.2,37.5,30.9,35.7,30.2,20.9,84,75,66,30.08,29.98,9,0,9,0.00
2013-12-20,53.4,45.4,40.3,53.2,43.5,35.8,99,93,82,29.98,29.81,18,9,18,0.11
2013-12-21,55.6,40.0,33.1,55.3,39.8,32.8,99,99,97,29.93,29.64,20,6,20,1.84
2013-12-22,46.6,38.8,33.4,45.6,37.6,33.2,99,96,87,30.06,29.55,30,8,30,0.31
2013-12-23,36.9,32.0,25.0,34.9,27.2,17.1,94,82,70,30.86,30.06,19,3,19,0.00
2013-12-24,25.0,18.5,13.3,18.0,11.1,7.4,83,72,60,30.62,30.38,14,0,14,0.00
2013-12-25,27.0,22.2,14.4,24.2,16.6,10.7,89,79,64,30.58,30.22,16,1,16,0.00
2013-12-26,32.0,28.2,25.3,28.4,23.2,18.6,96,82,70,30.40,30.14,16,1,16,0.00
2013-12-27,43.2,36.0,28.8,32.8,28.9,23.4,82,75,66,30.42,30.22,17,1,17,0.00
2013-12-28,49.6,41.8,35.2,36.7,33.1,30.4,84,72,59,30.24,30.01,17,3,17,0.00
2013-12-29,45.7,39.3,27.7,34.8,30.9,23.8,94,72,61,30.06,29.77,21,4,21,0.00
2013-12-30,27.7,22.6,19.8,23.8,13.9,8.8,85,69,56,30.34,30.06,19,2,19,0.00
2013-12-31,23.0,19.2,16.0,16.3,12.7,10.1,86,76,65,30.39,30.16,17,1,17,0.00
2014-1-1,25.2,20.7,17.6,24.7,18.8,14.4,98,92,86,30.41,30.20,19,1,19,0.00
2014-1-2,25.2,16.2,9.5,24.7,15.2,7.5,98,95,92,30.28,30.04,34,7,34,0.21